[[{"header":{"parameterUnit":"m.s-1","parameterCategory":2,"la1":30.2991,"la2":30.254,"lo1":-89.0895,"lo2":-89.0444,"dy":0.0017,"dx":0.0017,"nx":28,"ny":28,"refTime":"2025-02-01T03:00:00:Z","depth":"0","parameterNumber":2,"parameterNumberName":"U-component_of_CURRENTS"},"data":[0,0,0,0,0,0,0,0,0,0,0,0,0,0,0,0,0,0,0,0,0,0,0,0,0,0,0,0,0,0,0,0,0,0,0,0,0,0,0,0,0,0,0,0,0,0,0,0,0,0,0,0,0,0,0,0,0,0,0.2935,0.2935,0,0.2958,0.2958,0.2958,0.2971,0.2971,0.2971,0.2972,0.3026,0.3028,0.3029,0,0,0,0,0,0,0,0,0,0,0,0,0,0.2911,0.2911,0.2935,0.2936,0.2936,0.2958,0.2958,0.2958,0.2971,0.2971,0.2971,0.2972,0.3026,0.3028,0.3029,0,0,0,0,0,0,0,0,0,0,0,0,0,0.2925,0.2911,0.2935,0.2946,0.2947,0.2958,0.2958,0.2958,0.2971,0.2971,0.2971,0.2972,0.3026,0.3027,0.3029,0.3036,0,0,0.3035,0.3036,0,0,0,0,0,0,0,0,0.2924,0.2926,0.2944,0.2945,0.2947,0.2963,0.297,0.2986,0.2971,0.296,0.2972,0.2972,0.3009,0.3012,0.3014,0.3039,0.3041,0.3036,0.3037,0.3038,0.3038,0,0,0,0,0,0,0,0.2923,0.2925,0.2943,0.2944,0.2946,0.2953,0.2955,0.2973,0.2983,0.2961,0.2963,0.2967,0.301,0.3012,0.3015,0.3042,0.3035,0.3037,0.3038,0.3039,0.3104,0.3105,0,0,0,0,0,0,0.2922,0.2924,0.2942,0.2944,0.2937,0.2953,0.2955,0.2956,0.2982,0.2986,0.2967,0.2968,0.3008,0.3013,0.3017,0.3051,0.3038,0.3039,0.3041,0.3104,0.3105,0.3105,0,0,0,0,0,0,0.2922,0.2924,0.2941,0.2935,0.2938,0.2953,0.2954,0.2957,0.2962,0.2986,0.2991,0.297,0.3009,0.3014,0.3044,0.3053,0.304,0.3042,0.3103,0.3104,0.3105,0.3105,0,0,0,0,0,0,0.2921,0.2923,0.2921,0.2935,0.2939,0.2957,0.2954,0.2957,0.2965,0.2966,0.299,0.2995,0.3009,0.3041,0.3046,0.3055,0.3044,0.3103,0.3104,0.3105,0.3104,0.3105,0.3107,0,0,0,0,0,0.292,0.2913,0.292,0.2922,0.2936,0.2958,0.296,0.297,0.2965,0.2974,0.299,0.2995,0.3051,0.3043,0.3049,0.3059,0.3102,0.3103,0.3105,0.3103,0.3105,0.3107,0,0,0,0,0,0,0.2888,0.2914,0.2922,0.292,0.2944,0.2961,0.2962,0.297,0.2987,0.2986,0.3004,0.3011,0.3044,0.305,0.3041,0.3081,0.3076,0.3079,0.3074,0.3075,0.3077,0.3077,0.3045,0,0,0,0,0,0.2884,0.2892,0.2919,0.2917,0.2928,0.2945,0.2952,0.2964,0.2982,0.2988,0.3007,0.3026,0.3052,0.3062,0.3088,0.3106,0.3132,0.3115,0.3117,0.3118,0.3122,0.3181,0.3188,0.3109,0.3109,0.3109,0,0,0.2868,0.2885,0.2887,0.2913,0.2926,0.2945,0.2949,0.2963,0.2978,0.2993,0.3014,0.3038,0.3061,0.3088,0.3102,0.3093,0.3153,0.3119,0.312,0.3124,0.3183,0.3191,0.3198,0.311,0.311,0.311,0,0,0.2857,0.286,0.2874,0.2896,0.2926,0.2938,0.2944,0.297,0.2981,0.301,0.3025,0.3054,0.3085,0.3106,0.3119,0.3142,0.3165,0.3145,0.3145,0.3202,0.3209,0.3216,0.3254,0.3264,0.3137,0.3137,0.3137,0,0.2839,0.2857,0.288,0.2903,0.2913,0.2936,0.2951,0.2969,0.3002,0.3012,0.302,0.3077,0.3096,0.313,0.3138,0.3146,0.3176,0.3136,0.3204,0.3211,0.3218,0.3256,0.3267,0.3137,0.3137,0.3137,0.3137,0,0.2852,0.2863,0.2868,0.2906,0.2923,0.2934,0.2967,0.2983,0.2996,0.3018,0.3061,0.3095,0.3127,0.3138,0.3145,0.3195,0.3201,0.3206,0.32,0.3226,0.3264,0.3276,0.3138,0.3138,0.3138,0.3138,0,0,0.281,0.2867,0.2867,0.2876,0.2921,0.2927,0.2957,0.2986,0.2993,0.3042,0.3061,0.3115,0.3135,0.3151,0.3169,0.3212,0.3283,0.3225,0.3228,0.3262,0.3403,0.3369,0.3379,0.3305,0.3307,0.3308,0.3408,0,0.2809,0.2837,0.2874,0.2885,0.2893,0.2926,0.2945,0.2976,0.3004,0.3031,0.3081,0.3111,0.3139,0.315,0.3206,0.3261,0.3315,0.3255,0.3373,0.3376,0.3343,0.3392,0.3312,0.3391,0.3419,0.3421,0.3422,0,0.2806,0.2823,0.2839,0.286,0.2866,0.2879,0.2896,0.292,0.2973,0.2999,0.3054,0.3094,0.3163,0.3181,0.3316,0.3278,0.3346,0.3394,0.3399,0.3377,0.3365,0.3371,0.3411,0.328,0.344,0.3439,0.3438,0,0.2746,0.2787,0.2788,0.2799,0.284,0.2844,0.2859,0.2904,0.2917,0.2978,0.2998,0.3094,0.3132,0.3245,0.3354,0.3341,0.3502,0.3493,0.3533,0.3531,0.349,0.348,0.3418,0.3606,0.3606,0.3606,0.3606,0,0.2714,0.2705,0.2757,0.2753,0.2746,0.2791,0.2788,0.2821,0.2868,0.2883,0.2973,0.3012,0.3154,0.3259,0.3363,0.3486,0.352,0.3548,0.3563,0.3485,0.3474,0.338,0.3318,0.361,0.3609,0.3608,0.3607,0,0.2636,0.2673,0.2669,0.2708,0.2717,0.2704,0.2735,0.273,0.2792,0.2818,0.2838,0.296,0.3099,0.3245,0.342,0.3481,0.3506,0.3646,0.3535,0.3534,0.3416,0.3357,0.3222,0.3136,0.3692,0.3692,0.3692,0,0.2592,0.2592,0.2623,0.2609,0.2622,0.2621,0.2617,0.2679,0.2687,0.2787,0.2795,0.2935,0.303,0.3271,0.3432,0.3612,0.3499,0.3604,0.3563,0.3405,0.3351,0.3196,0.3121,0.3512,0.351,0.3509,0.3508,0,0.2505,0.2524,0.2518,0.2513,0.2503,0.2494,0.2503,0.2512,0.2588,0.2628,0.2702,0.2788,0.3035,0.3181,0.3411,0.3519,0.3397,0.3581,0.3457,0.3238,0.3026,0.2951,0.3435,0.3496,0.3497,0.3498,0.3499,0.3499,0.2423,0.2402,0.2408,0.2389,0.2378,0.236,0.233,0.2371,0.2392,0.2451,0.2588,0.2694,0.294,0.326,0.3334,0.3371,0.3336,0.3307,0.3263,0.3129,0.2987,0.343,0.3478,0.3479,0.3479,0.348,0.3481,0,0.2307,0.2298,0.228,0.2245,0.2195,0.2237,0.2236,0.2209,0.2216,0.2344,0.2418,0.2638,0.281,0.3001,0.3149,0.306,0.2961,0.297,0.2733,0.2692,0.314,0.3073,0.2983,0.2983,0.2983,0.2983,0.2984,0.2984,0.2236,0.2181,0.2183,0.2075,0.205,0.1975,0.1964,0.1962,0.2036,0.212,0.2228,0.2385,0.2592,0.2761,0.2741,0.2718,0.2491,0.2409,0.236,0.2677,0.2703,0.2729,0.2648,0.2471,0.2471,0.1832,0.1827,0.1823]},{"header":{"parameterUnit":"m.s-1","parameterCategory":2,"la1":30.2991,"la2":30.254,"lo1":-89.0895,"lo2":-89.0444,"dy":0.0017,"dx":0.0017,"nx":28,"ny":28,"refTime":"2025-02-01T03:00:00:Z","depth":"0","parameterNumber":3,"parameterNumberName":"V-component_of_CURRENTS"},"data":[0,0,0,0,0,0,0,0,0,0,0,0,0,0,0,0,0,0,0,0,0,0,0,0,0,0,0,0,0,0,0,0,0,0,0,0,0,0,0,0,0,0,0,0,0,0,0,0,0,0,0,0,0,0,0,0,0,0,0.034,0.0341,0,0.0438,0.0439,0.0441,0.0459,0.0458,0.0457,0.0456,0.0585,0.059,0.0594,0,0,0,0,0,0,0,0,0,0,0,0,0,0.0227,0.0229,0.034,0.0341,0.0342,0.0438,0.0439,0.0441,0.046,0.0458,0.0457,0.0456,0.0584,0.0589,0.0594,0,0,0,0,0,0,0,0,0,0,0,0,0,0.0298,0.0229,0.034,0.0361,0.0364,0.0438,0.0439,0.0441,0.046,0.0458,0.0457,0.0455,0.0582,0.0589,0.0595,0.0665,0,0,0.0615,0.0618,0,0,0,0,0,0,0,0,0.0294,0.0302,0.0357,0.036,0.0363,0.0433,0.0447,0.0517,0.046,0.0426,0.0456,0.0455,0.0537,0.0547,0.0572,0.0671,0.0677,0.0616,0.062,0.0622,0.0624,0,0,0,0,0,0,0,0.0289,0.0298,0.0381,0.0358,0.0362,0.0386,0.0394,0.0461,0.0491,0.0429,0.043,0.0437,0.0539,0.0565,0.0575,0.0679,0.0615,0.0621,0.0625,0.0628,0.0813,0.0814,0,0,0,0,0,0,0.0271,0.0294,0.0378,0.0384,0.0321,0.0388,0.0398,0.0414,0.0489,0.0499,0.0439,0.0438,0.0555,0.0567,0.058,0.0672,0.0622,0.0629,0.0632,0.0812,0.0813,0.0814,0,0,0,0,0,0,0.0268,0.0278,0.0374,0.0338,0.0352,0.0391,0.041,0.0416,0.0442,0.0496,0.0506,0.0456,0.0554,0.057,0.066,0.0676,0.0631,0.0637,0.0811,0.0812,0.0814,0.0853,0,0,0,0,0,0,0.0265,0.0277,0.0289,0.0338,0.0353,0.0434,0.0411,0.0419,0.0448,0.0448,0.0515,0.0525,0.0554,0.065,0.0667,0.0685,0.0643,0.0809,0.0811,0.0813,0.0851,0.0856,0.0861,0,0,0,0,0,0.0261,0.0297,0.029,0.03,0.0367,0.0436,0.0448,0.0471,0.045,0.0484,0.0527,0.0523,0.0671,0.0659,0.0677,0.0697,0.0809,0.0811,0.0813,0.0849,0.0855,0.086,0,0,0,0,0,0,0.0268,0.0304,0.0296,0.0343,0.0386,0.0438,0.0472,0.0476,0.0536,0.0534,0.0567,0.0584,0.066,0.0678,0.0662,0.075,0.0727,0.0733,0.0748,0.0754,0.0759,0.0747,0.0648,0,0,0,0,0,0.027,0.0299,0.0338,0.0377,0.0396,0.0428,0.0457,0.0474,0.0527,0.0549,0.0595,0.0637,0.0685,0.0719,0.0772,0.0844,0.0823,0.0857,0.0861,0.0866,0.0866,0.085,0.0852,0.0821,0.0821,0.0821,0,0,0.0283,0.0306,0.0323,0.0379,0.0409,0.0469,0.0444,0.0498,0.0547,0.0558,0.0647,0.067,0.0709,0.0784,0.0816,0.0802,0.0864,0.0868,0.0872,0.087,0.0852,0.0855,0.0857,0.0823,0.0823,0.0822,0,0,0.0343,0.0344,0.0394,0.0431,0.048,0.0504,0.0517,0.0575,0.0597,0.0686,0.0686,0.0721,0.082,0.0837,0.0858,0.0922,0.0892,0.0927,0.0949,0.0933,0.0935,0.0936,0.0912,0.0911,0.0927,0.0927,0.0927,0,0.0357,0.0418,0.0423,0.0486,0.0517,0.0519,0.0584,0.0622,0.0703,0.0721,0.0721,0.0812,0.0841,0.0897,0.0911,0.0933,0.0914,0.0926,0.0938,0.0939,0.094,0.0914,0.0913,0.0929,0.0929,0.0929,0.0929,0,0.0463,0.0504,0.054,0.0605,0.0644,0.0702,0.0738,0.0779,0.0789,0.0813,0.0869,0.0904,0.0944,0.0949,0.0959,0.0975,0.0957,0.0947,0.092,0.0945,0.0917,0.0914,0.0932,0.0932,0.0931,0.093,0,0,0.0515,0.0595,0.0606,0.0636,0.0704,0.0745,0.0816,0.0871,0.0897,0.0946,0.0982,0.1033,0.1009,0.1028,0.1022,0.1005,0.0992,0.0979,0.0977,0.0949,0.0948,0.0914,0.0907,0.0982,0.0981,0.0981,0.0925,0,0.0594,0.0701,0.0728,0.0822,0.0873,0.0884,0.0944,0.0984,0.1007,0.1048,0.1038,0.1079,0.1051,0.1059,0.104,0.1015,0.0987,0.1007,0.0933,0.0931,0.0892,0.0904,0.0907,0.0855,0.0922,0.0922,0.0922,0,0.0695,0.0743,0.0841,0.0897,0.092,0.0974,0.1022,0.108,0.1116,0.113,0.1142,0.1137,0.1136,0.1099,0.1049,0.1063,0.1006,0.0969,0.0966,0.0917,0.0891,0.0842,0.0848,0.0701,0.0917,0.0918,0.0918,0,0.0716,0.0819,0.0881,0.091,0.0986,0.1017,0.1052,0.1097,0.1136,0.1171,0.1192,0.1186,0.1187,0.1126,0.1058,0.1051,0.0987,0.0968,0.0878,0.0875,0.0854,0.0849,0.0704,0.0911,0.0911,0.0912,0.0912,0,0.0785,0.0834,0.089,0.0926,0.0987,0.1031,0.1093,0.1126,0.1177,0.1224,0.1222,0.1254,0.1191,0.1155,0.1076,0.0976,0.0999,0.088,0.0859,0.0868,0.0865,0.0717,0.0642,0.0909,0.091,0.091,0.0911,0,0.0802,0.0847,0.0915,0.0982,0.1002,0.1041,0.1115,0.1162,0.1201,0.1264,0.1278,0.13,0.1261,0.1185,0.1091,0.1,0.0824,0.0859,0.087,0.0851,0.0622,0.055,0.0403,0.0334,0.0748,0.0746,0.0745,0,0.082,0.0858,0.0932,0.0965,0.0996,0.1056,0.1104,0.1166,0.1221,0.1297,0.1333,0.1322,0.1348,0.1203,0.1046,0.0901,0.0778,0.0772,0.0753,0.0603,0.0508,0.0471,0.0422,0.074,0.0739,0.0738,0.0738,0,0.0835,0.0858,0.0904,0.0977,0.103,0.1101,0.1173,0.1222,0.1304,0.1363,0.144,0.1469,0.135,0.1235,0.1028,0.0907,0.0665,0.0749,0.0596,0.0487,0.0437,0.0364,0.0774,0.0731,0.0731,0.0732,0.0732,0.0733,0.0825,0.0859,0.0921,0.0991,0.1057,0.1151,0.1215,0.1302,0.14,0.152,0.1535,0.1628,0.1439,0.1178,0.0953,0.057,0.0591,0.0466,0.0392,0.0368,0.0297,0.0682,0.0613,0.0613,0.0613,0.0613,0.0613,0,0.0817,0.0868,0.0933,0.1028,0.1109,0.115,0.127,0.1351,0.1474,0.161,0.17,0.1725,0.1425,0.1106,0.0602,0.0292,0.0191,0.0125,0.007,0.0035,0.038,0.0373,0.0247,0.0247,0.0247,0.0247,0.0247,0.0247,0.0815,0.0876,0.0927,0.1057,0.1128,0.1251,0.1328,0.1448,0.1579,0.1767,0.1888,0.1981,0.1745,0.0798,0.0117,-0.0036,-0.0246,-0.0286,-0.0396,-0.0171,-0.0145,-0.012,-0.0145,-0.0378,-0.0379,-0.069,-0.0693,-0.0696]}],[{"header":{"parameterUnit":"m.s-1","parameterCategory":2,"la1":30.2991,"la2":30.254,"lo1":-89.0895,"lo2":-89.0444,"dy":0.0017,"dx":0.0017,"nx":28,"ny":28,"refTime":"2025-02-01T03:00:00:Z","depth":"2","parameterNumber":2,"parameterNumberName":"U-component_of_CURRENTS"},"data":[0,0,0,0,0,0,0,0,0,0,0,0,0,0,0,0,0,0,0,0,0,0,0,0,0,0,0,0,0,0,0,0,0,0,0,0,0,0,0,0,0,0,0,0,0,0,0,0,0,0,0,0,0,0,0,0,0,0,0.1748,0.1748,0,0.1783,0.1783,0.1783,0.1787,0.1787,0.1787,0.1787,0.1786,0.1786,0.1786,0,0,0,0,0,0,0,0,0,0,0,0,0,0.167,0.1672,0.1748,0.1748,0.1749,0.1783,0.1783,0.1783,0.1787,0.1787,0.1787,0.1787,0.1786,0.1786,0.1786,0,0,0,0,0,0,0,0,0,0,0,0,0,0.1702,0.1672,0.1748,0.1757,0.1758,0.1783,0.1783,0.1783,0.1787,0.1787,0.1787,0.1787,0.1786,0.1786,0.1786,0.1791,0,0,0.1786,0.1786,0,0,0,0,0,0,0,0,0.1701,0.1705,0.1755,0.1756,0.1758,0.1782,0.1755,0.1785,0.1787,0.1774,0.1787,0.1787,0.1783,0.1783,0.1788,0.1791,0.1791,0.1786,0.1786,0.1787,0.1787,0,0,0,0,0,0,0,0.1698,0.1703,0.1759,0.1755,0.1757,0.1754,0.1759,0.1761,0.1777,0.1775,0.1776,0.1783,0.1783,0.1787,0.1788,0.1791,0.1786,0.1786,0.1787,0.1787,0.1849,0.185,0,0,0,0,0,0,0.17,0.1702,0.1758,0.1761,0.1731,0.1756,0.1761,0.1773,0.1778,0.1779,0.1784,0.1784,0.1787,0.1787,0.1787,0.1832,0.1787,0.1787,0.1787,0.1847,0.1849,0.1851,0,0,0,0,0,0,0.1698,0.1705,0.1757,0.1733,0.174,0.1758,0.1771,0.1774,0.1795,0.1785,0.1785,0.1805,0.1787,0.1787,0.1811,0.183,0.1787,0.1787,0.1845,0.1848,0.185,0.1897,0,0,0,0,0,0,0.1696,0.1704,0.1718,0.1734,0.1741,0.1785,0.1772,0.1775,0.18,0.1801,0.1803,0.1802,0.1787,0.1811,0.1811,0.183,0.1787,0.1843,0.1846,0.1849,0.1893,0.19,0.1906,0,0,0,0,0,0.1693,0.1711,0.1719,0.1726,0.1759,0.1786,0.179,0.18,0.1802,0.1817,0.1823,0.1803,0.183,0.1813,0.1813,0.1831,0.1842,0.1846,0.1849,0.189,0.1899,0.1906,0,0,0,0,0,0,0.169,0.1714,0.1723,0.175,0.1773,0.1788,0.1806,0.1814,0.1832,0.1836,0.1822,0.1822,0.185,0.1841,0.1822,0.186,0.1833,0.1836,0.1864,0.1872,0.1879,0.1877,0.1787,0,0,0,0,0,0.1696,0.1715,0.174,0.1764,0.1778,0.1797,0.1812,0.1822,0.1837,0.1846,0.1848,0.1854,0.1862,0.1868,0.1872,0.1894,0.1905,0.1908,0.1914,0.192,0.192,0.1959,0.1968,0.1862,0.1862,0.1862,0,0,0.1701,0.1719,0.1729,0.1765,0.1783,0.1804,0.1805,0.1837,0.1854,0.1842,0.1871,0.1879,0.1875,0.1898,0.191,0.1894,0.1962,0.1924,0.1929,0.1926,0.1963,0.1973,0.1983,0.1865,0.1864,0.1864,0,0,0.1712,0.174,0.1755,0.1777,0.1812,0.1825,0.184,0.1869,0.1884,0.1914,0.1911,0.1936,0.1947,0.195,0.1951,0.2,0.1997,0.2004,0.2033,0.2071,0.208,0.2087,0.2137,0.2149,0.2006,0.2006,0.2006,0,0.1719,0.1739,0.1765,0.1786,0.1804,0.1836,0.1856,0.1879,0.1912,0.1929,0.193,0.197,0.1969,0.1996,0.2013,0.2013,0.204,0.2,0.2079,0.2087,0.2094,0.2142,0.2155,0.2009,0.2008,0.2008,0.2008,0,0.1733,0.1756,0.1771,0.1803,0.1829,0.1856,0.1889,0.1921,0.1945,0.1965,0.2012,0.2023,0.2045,0.2054,0.2045,0.2097,0.2104,0.2083,0.2055,0.2107,0.2155,0.2167,0.2012,0.2012,0.2011,0.201,0,0,0.1724,0.177,0.1774,0.1788,0.184,0.1858,0.1902,0.1944,0.1976,0.2015,0.2057,0.2082,0.2102,0.2105,0.211,0.2143,0.2223,0.2139,0.2139,0.2183,0.2326,0.2176,0.2174,0.222,0.2222,0.2223,0.2348,0,0.1726,0.1753,0.1781,0.1811,0.1829,0.1875,0.191,0.1955,0.2001,0.2052,0.2086,0.2126,0.2117,0.2141,0.2174,0.2211,0.2253,0.2192,0.2273,0.2276,0.2131,0.2182,0.2025,0.2108,0.2359,0.2361,0.2363,0,0.172,0.174,0.1766,0.1811,0.1825,0.1851,0.1917,0.1956,0.2036,0.2077,0.2133,0.2165,0.2229,0.221,0.2306,0.2272,0.2305,0.233,0.2335,0.218,0.2146,0.2093,0.212,0.2382,0.2381,0.2379,0.2378,0,0.168,0.1725,0.1742,0.1758,0.1818,0.1844,0.1884,0.1962,0.2008,0.2102,0.215,0.2224,0.2276,0.2328,0.2383,0.2357,0.2489,0.2455,0.2356,0.2348,0.2219,0.2193,0.2523,0.2523,0.2522,0.2522,0.2522,0,0.1659,0.1672,0.1725,0.1733,0.1765,0.182,0.1873,0.193,0.2023,0.2088,0.216,0.2232,0.2309,0.2388,0.2421,0.2428,0.2525,0.2369,0.2364,0.2231,0.2206,0.2436,0.2424,0.2527,0.2526,0.2525,0.2524,0,0.161,0.1644,0.1666,0.1726,0.1745,0.1771,0.1861,0.1902,0.2,0.2092,0.2127,0.2262,0.2349,0.2413,0.2515,0.2461,0.2492,0.2473,0.2311,0.228,0.2321,0.2311,0.2364,0.2359,0.2355,0.2352,0.235,0,0.1586,0.1589,0.1647,0.1662,0.169,0.174,0.1776,0.1879,0.1933,0.2111,0.215,0.2273,0.2316,0.2395,0.2365,0.2371,0.2453,0.22,0.208,0.2312,0.2304,0.2299,0.2294,0.1968,0.1963,0.1958,0.1955,0,0.1534,0.1557,0.1573,0.161,0.1644,0.1684,0.1749,0.1789,0.1924,0.2007,0.2133,0.2182,0.2235,0.215,0.2123,0.2108,0.2169,0.2097,0.2426,0.199,0.1937,0.1928,0.1938,0.1914,0.1918,0.1921,0.1924,0.1925,0.1489,0.1491,0.1518,0.1551,0.1586,0.1622,0.1642,0.1718,0.1795,0.1858,0.1986,0.1972,0.1989,0.1819,0.1798,0.1778,0.1895,0.181,0.1827,0.1848,0.1736,0.1674,0.1586,0.1588,0.1589,0.1591,0.1592,0,0.1423,0.1438,0.1457,0.1493,0.1507,0.1558,0.1613,0.1614,0.1673,0.168,0.1711,0.1544,0.1471,0.1519,0.1412,0.1376,0.14,0.1334,0.1375,0.1414,0.145,0.132,0.1059,0.1057,0.1056,0.1054,0,0,0.1387,0.138,0.1398,0.1404,0.1435,0.1444,0.1465,0.1468,0.1463,0.1356,0.1292,0.1299,0.1411,0.1185,0.1177,0.1107,0.125,0.1064,0.1493,0.1578,0.1612,0.1725,0.1568,0,0,0,0,0]},{"header":{"parameterUnit":"m.s-1","parameterCategory":2,"la1":30.2991,"la2":30.254,"lo1":-89.0895,"lo2":-89.0444,"dy":0.0017,"dx":0.0017,"nx":28,"ny":28,"refTime":"2025-02-01T03:00:00:Z","depth":"2","parameterNumber":3,"parameterNumberName":"V-component_of_CURRENTS"},"data":[0,0,0,0,0,0,0,0,0,0,0,0,0,0,0,0,0,0,0,0,0,0,0,0,0,0,0,0,0,0,0,0,0,0,0,0,0,0,0,0,0,0,0,0,0,0,0,0,0,0,0,0,0,0,0,0,0,0,-0.0113,-0.0113,0,-0.0141,-0.0141,-0.0141,-0.0165,-0.0165,-0.0165,-0.0165,-0.0219,-0.022,-0.0221,0,0,0,0,0,0,0,0,0,0,0,0,0,-0.0099,-0.0099,-0.0113,-0.0113,-0.0113,-0.0141,-0.0141,-0.0141,-0.0165,-0.0165,-0.0165,-0.0165,-0.0218,-0.022,-0.0221,0,0,0,0,0,0,0,0,0,0,0,0,0,-0.0114,-0.0099,-0.0113,-0.0128,-0.013,-0.0141,-0.0141,-0.0142,-0.0165,-0.0165,-0.0165,-0.0165,-0.0218,-0.022,-0.0221,-0.0226,0,0,-0.0227,-0.0228,0,0,0,0,0,0,0,0,-0.0113,-0.0114,-0.0125,-0.0127,-0.0129,-0.0149,-0.0156,-0.0171,-0.0164,-0.0152,-0.0165,-0.0166,-0.0197,-0.0201,-0.0206,-0.0229,-0.0231,-0.0227,-0.0228,-0.0229,-0.023,0,0,0,0,0,0,0,-0.0112,-0.0113,-0.0124,-0.0126,-0.0128,-0.014,-0.0142,-0.0159,-0.0173,-0.0153,-0.0154,-0.0157,-0.0199,-0.0204,-0.0207,-0.0232,-0.0227,-0.0229,-0.023,-0.0231,-0.0249,-0.0249,0,0,0,0,0,0,-0.0106,-0.0112,-0.0123,-0.0125,-0.0121,-0.014,-0.0143,-0.0143,-0.0172,-0.0177,-0.0157,-0.0158,-0.02,-0.0205,-0.0209,-0.0194,-0.0229,-0.0231,-0.0232,-0.025,-0.0249,-0.0248,0,0,0,0,0,0,-0.0106,-0.0107,-0.0122,-0.0119,-0.0122,-0.014,-0.014,-0.0143,-0.0148,-0.0175,-0.018,-0.0158,-0.0201,-0.0207,-0.0217,-0.0197,-0.0232,-0.0233,-0.025,-0.025,-0.0249,-0.0179,0,0,0,0,0,0,-0.0105,-0.0107,-0.0105,-0.0119,-0.0122,-0.012,-0.0139,-0.0143,-0.0149,-0.0151,-0.0178,-0.0183,-0.0202,-0.0214,-0.0219,-0.0201,-0.0235,-0.0251,-0.025,-0.0249,-0.0182,-0.0176,-0.0171,0,0,0,0,0,-0.0105,-0.0096,-0.0104,-0.0106,-0.0119,-0.012,-0.0122,-0.0137,-0.0148,-0.0144,-0.0163,-0.0182,-0.021,-0.0215,-0.0221,-0.0203,-0.0252,-0.025,-0.0249,-0.0185,-0.0177,-0.0171,0,0,0,0,0,0,-0.0086,-0.0098,-0.0107,-0.0102,-0.0108,-0.0123,-0.0123,-0.0133,-0.0145,-0.015,-0.0177,-0.0183,-0.0184,-0.0205,-0.021,-0.0205,-0.0233,-0.0233,-0.0182,-0.0176,-0.017,-0.016,-0.0236,0,0,0,0,0,-0.0081,-0.0081,-0.0092,-0.0088,-0.0091,-0.0107,-0.0111,-0.0119,-0.0132,-0.0138,-0.0156,-0.0174,-0.0182,-0.0189,-0.0203,-0.0202,-0.0227,-0.0195,-0.0189,-0.0184,-0.018,-0.0207,-0.0203,-0.0244,-0.0244,-0.0244,0,0,-0.0074,-0.008,-0.008,-0.0085,-0.0094,-0.0082,-0.011,-0.0111,-0.0099,-0.0142,-0.0135,-0.0157,-0.0179,-0.0174,-0.0176,-0.0189,-0.0183,-0.0182,-0.0177,-0.0176,-0.0205,-0.0201,-0.0197,-0.0243,-0.0243,-0.0243,0,0,-0.0053,-0.0063,-0.0054,-0.0053,-0.006,-0.0067,-0.0064,-0.0077,-0.008,-0.008,-0.0102,-0.0112,-0.0131,-0.0136,-0.0143,-0.0116,-0.0152,-0.0121,-0.0082,-0.0107,-0.0104,-0.0101,-0.0116,-0.0116,-0.0116,-0.0116,-0.0116,0,-0.0045,-0.003,-0.0051,-0.0036,-0.0027,-0.0055,-0.0033,-0.0038,-0.0051,-0.0048,-0.007,-0.009,-0.011,-0.0097,-0.0086,-0.0101,-0.0123,-0.0104,-0.0099,-0.0097,-0.0096,-0.0112,-0.0112,-0.0113,-0.0113,-0.0114,-0.0114,0,-0.0013,0.0001,0.0009,0.0019,0.0026,0.0039,0.0033,0.0036,0.0022,0.0014,0.0014,-0.0018,-0.0029,-0.0034,-0.0052,-0.0043,-0.0063,-0.0089,-0.0115,-0.0087,-0.0106,-0.0107,-0.0108,-0.0109,-0.011,-0.0111,0,0,-0.0,0.0026,0.0029,0.0052,0.0059,0.007,0.0091,0.0103,0.0121,0.0094,0.0111,0.009,0.0061,0.0051,0.0026,0.0005,-0.0,-0.0034,-0.0037,-0.0044,-0.0051,-0.0074,-0.0079,-0.0029,-0.0029,-0.003,-0.0063,0,0.0032,0.008,0.0081,0.013,0.0158,0.015,0.0176,0.0182,0.0175,0.0182,0.0144,0.0143,0.0098,0.0093,0.0066,0.002,-0.0003,0.0012,-0.008,-0.0082,-0.0104,-0.0081,-0.0073,-0.0104,-0.0065,-0.0065,-0.0065,0,0.0066,0.0096,0.0152,0.0199,0.0209,0.023,0.0267,0.0287,0.0286,0.028,0.0262,0.0226,0.0204,0.015,0.008,0.009,0.0026,-0.0021,-0.0024,-0.0073,-0.0109,-0.0128,-0.0109,-0.0069,-0.0068,-0.0068,-0.0068,0,0.0098,0.0148,0.0197,0.0213,0.0257,0.0278,0.0297,0.0313,0.0341,0.0337,0.0346,0.0303,0.0288,0.0201,0.0112,0.009,0.0029,-0.0017,-0.0099,-0.0101,-0.0126,-0.013,-0.0079,-0.0079,-0.0079,-0.0079,-0.0078,0,0.0142,0.0181,0.0214,0.0244,0.0303,0.0315,0.0372,0.0384,0.0408,0.0455,0.0394,0.042,0.0296,0.0247,0.0143,0.0034,0.0052,-0.0086,-0.0111,-0.01,-0.0102,-0.0102,-0.0104,-0.008,-0.008,-0.0079,-0.0079,0,0.018,0.0199,0.026,0.0306,0.0322,0.0365,0.0423,0.0465,0.0475,0.0534,0.0534,0.0509,0.0446,0.0323,0.02,0.0086,-0.0024,-0.0071,-0.0042,-0.0064,-0.015,-0.0149,-0.0182,-0.0183,-0.0184,-0.0185,-0.0186,0,0.0208,0.0242,0.0303,0.0339,0.0361,0.0419,0.0464,0.0497,0.0548,0.0604,0.064,0.0596,0.0581,0.0393,0.0196,0.0007,-0.0012,-0.012,-0.0175,-0.014,-0.0161,-0.0158,-0.0155,-0.0175,-0.0175,-0.0176,-0.0176,0,0.0265,0.0278,0.0324,0.0392,0.0443,0.0514,0.0578,0.0632,0.0687,0.0741,0.082,0.0809,0.0624,0.0438,0.0165,0.0034,-0.0095,-0.0138,-0.0099,-0.0152,-0.0137,-0.0156,-0.0153,-0.018,-0.018,-0.0179,-0.0179,-0.0179,0.0299,0.0338,0.0386,0.0453,0.0516,0.0603,0.0674,0.076,0.0861,0.0935,0.0925,0.0892,0.0671,0.0302,0.011,-0.011,-0.0127,-0.0227,-0.0224,-0.0221,-0.0217,-0.0204,-0.0258,-0.0258,-0.0258,-0.0259,-0.0259,0,0.0342,0.038,0.0445,0.0527,0.0603,0.0627,0.0749,0.0835,0.0977,0.0994,0.103,0.0795,0.0569,0.0336,-0.0001,-0.0211,-0.0217,-0.0264,-0.0231,-0.0227,-0.0224,-0.0217,-0.026,-0.0261,-0.0261,-0.0261,0,0,0.0366,0.0426,0.0457,0.0582,0.0644,0.076,0.0839,0.0977,0.1032,0.1054,0.0996,0.0876,0.06,0.0354,0.0093,-0.0076,-0.01,-0.0109,-0.0094,-0.0021,-0.0014,-0.0198,-0.0184,0,0,0,0,0]}],[{"header":{"parameterUnit":"m.s-1","parameterCategory":2,"la1":30.2991,"la2":30.254,"lo1":-89.0895,"lo2":-89.0444,"dy":0.0017,"dx":0.0017,"nx":28,"ny":28,"refTime":"2025-02-01T03:00:00:Z","depth":"4","parameterNumber":2,"parameterNumberName":"U-component_of_CURRENTS"},"data":[0,0,0,0,0,0,0,0,0,0,0,0,0,0,0,0,0,0,0,0,0,0,0,0,0,0,0,0,0,0,0,0,0,0,0,0,0,0,0,0,0,0,0,0,0,0,0,0,0,0,0,0,0,0,0,0,0,0,0.0603,0.0604,0,0.0632,0.0632,0.0632,0.0657,0.0657,0.0658,0.0658,0.0681,0.0682,0.0682,0,0,0,0,0,0,0,0,0,0,0,0,0,0.0547,0.0548,0.0603,0.0604,0.0604,0.0632,0.0632,0.0632,0.0657,0.0657,0.0658,0.0659,0.0681,0.0682,0.0682,0,0,0,0,0,0,0,0,0,0,0,0,0,0.0571,0.0548,0.0603,0.0622,0.0624,0.0631,0.0632,0.0632,0.0657,0.0657,0.0658,0.0659,0.0681,0.0682,0.0682,0.0668,0,0,0.0682,0.0683,0,0,0,0,0,0,0,0,0.0569,0.0572,0.0618,0.0621,0.0623,0.0643,0.062,0.0645,0.0657,0.0642,0.0658,0.0659,0.0669,0.067,0.0671,0.0669,0.067,0.0682,0.0683,0.0683,0.0683,0,0,0,0,0,0,0,0.0568,0.0571,0.0612,0.0619,0.0622,0.0621,0.0625,0.0625,0.0649,0.0643,0.0646,0.0652,0.067,0.0671,0.0672,0.067,0.0682,0.0683,0.0683,0.0683,0.0703,0.0703,0,0,0,0,0,0,0.0569,0.057,0.0611,0.0613,0.06,0.0621,0.0626,0.0634,0.0649,0.0653,0.0651,0.0653,0.067,0.0671,0.0673,0.0699,0.0683,0.0683,0.0683,0.0702,0.0703,0.0703,0,0,0,0,0,0,0.0568,0.0573,0.061,0.0594,0.0599,0.0622,0.0631,0.0634,0.0653,0.0656,0.0659,0.0669,0.0671,0.0672,0.0693,0.0698,0.0683,0.0683,0.0702,0.0702,0.0703,0.0725,0,0,0,0,0,0,0.0566,0.0572,0.0583,0.0594,0.06,0.0626,0.063,0.0635,0.0656,0.0659,0.0671,0.0673,0.0671,0.0693,0.0693,0.0698,0.0683,0.0701,0.0702,0.0703,0.0723,0.0726,0.0728,0,0,0,0,0,0.0564,0.0576,0.0583,0.0588,0.0612,0.0627,0.063,0.0646,0.0656,0.0666,0.0679,0.0674,0.0697,0.0693,0.0694,0.0699,0.0701,0.0702,0.0703,0.0722,0.0725,0.0728,0,0,0,0,0,0,0.0555,0.058,0.0588,0.0606,0.0621,0.0632,0.0646,0.0655,0.0672,0.0681,0.0682,0.0685,0.0711,0.0699,0.0695,0.0707,0.0696,0.0697,0.0711,0.0714,0.0716,0.0741,0.0684,0,0,0,0,0,0.0558,0.0575,0.0593,0.0609,0.0619,0.0634,0.0645,0.0657,0.0672,0.0681,0.0693,0.0701,0.071,0.0709,0.0722,0.0721,0.0724,0.0724,0.0726,0.0728,0.0748,0.0754,0.0759,0.0706,0.0706,0.0706,0,0,0.0555,0.0575,0.0583,0.0609,0.0623,0.0636,0.0643,0.0665,0.0678,0.068,0.0708,0.0721,0.0717,0.0729,0.0736,0.072,0.0743,0.0729,0.0731,0.0751,0.0756,0.0761,0.0765,0.0707,0.0707,0.0706,0,0,0.0558,0.0581,0.0595,0.0612,0.0641,0.0649,0.066,0.0683,0.0698,0.0724,0.073,0.0752,0.076,0.076,0.0758,0.0778,0.0768,0.0771,0.0788,0.0792,0.0797,0.0801,0.0805,0.0809,0.0756,0.0756,0.0756,0,0.0556,0.0577,0.06,0.062,0.0635,0.0657,0.067,0.0685,0.0713,0.073,0.074,0.0781,0.0778,0.0788,0.0795,0.0785,0.0785,0.0776,0.0796,0.08,0.0804,0.0807,0.0812,0.0757,0.0757,0.0757,0.0757,0,0.0563,0.0588,0.06,0.0632,0.0648,0.0668,0.0689,0.0717,0.0743,0.0759,0.0802,0.0812,0.0838,0.0828,0.0818,0.0837,0.0828,0.0811,0.079,0.0811,0.0813,0.0817,0.0759,0.0758,0.0758,0.0758,0,0,0.0541,0.0593,0.0601,0.0621,0.0659,0.0674,0.0703,0.0733,0.0765,0.08,0.0838,0.0857,0.0881,0.0881,0.0872,0.0867,0.0887,0.0849,0.0849,0.0856,0.0899,0.0866,0.0867,0.087,0.0871,0.0872,0.0886,0,0.0541,0.0577,0.0603,0.0637,0.0655,0.0693,0.0719,0.0753,0.0789,0.0834,0.0855,0.0896,0.089,0.0912,0.091,0.0902,0.0902,0.0886,0.0877,0.0877,0.0847,0.0872,0.0875,0.0889,0.089,0.0891,0.0892,0,0.0537,0.0566,0.0596,0.0651,0.0664,0.0694,0.0754,0.078,0.0839,0.0872,0.092,0.0946,0.0971,0.0959,0.0968,0.0957,0.0942,0.0927,0.0926,0.0897,0.0852,0.0866,0.09,0.0899,0.0898,0.0898,0.0897,0,0.0506,0.0562,0.0589,0.0607,0.0668,0.0704,0.0742,0.0802,0.0834,0.0908,0.095,0.0985,0.1019,0.1011,0.1006,0.0987,0.1007,0.097,0.0927,0.0924,0.094,0.0935,0.0982,0.0982,0.0982,0.0981,0.0981,0,0.0492,0.0517,0.0589,0.0605,0.065,0.0703,0.0758,0.0806,0.0879,0.0917,0.0977,0.1014,0.1036,0.1052,0.1026,0.1003,0.1028,0.095,0.0932,0.0946,0.0942,0.0942,0.0937,0.0982,0.0982,0.0982,0.0982,0,0.0453,0.0497,0.0531,0.0608,0.0636,0.0672,0.0762,0.0803,0.0885,0.0941,0.0972,0.1045,0.1071,0.1084,0.1074,0.1032,0.1007,0.0989,0.1022,0.1003,0.0912,0.0908,0.0937,0.0936,0.0935,0.0934,0.0934,0,0.0434,0.0449,0.0521,0.0547,0.0589,0.0654,0.0697,0.0791,0.0832,0.0945,0.0963,0.1038,0.1071,0.1044,0.1051,0.1024,0.1003,0.0988,0.0939,0.0931,0.091,0.0908,0.0905,0.0932,0.0932,0.0932,0.0932,0,0.0394,0.0425,0.0453,0.0502,0.0555,0.0602,0.0677,0.0704,0.0807,0.0888,0.0945,0.0976,0.1008,0.101,0.1016,0.0983,0.0996,0.0979,0.0979,0.0933,0.0926,0.0906,0.0904,0.0929,0.0929,0.093,0.093,0,0.0364,0.0372,0.0413,0.0454,0.0506,0.0544,0.0589,0.0656,0.0712,0.0847,0.0855,0.0932,0.0996,0.0988,0.098,0.097,0.0938,0.089,0.0894,0.0897,0.0877,0.0862,0.0843,0,0,0,0,0,0.0335,0.034,0.0365,0.0407,0.0454,0.0489,0.0571,0.0621,0.0721,0.0743,0.0806,0.0836,0.0868,0.0901,0.0877,0.0938,0.0925,0.0905,0.0867,0.0914,0.0917,0.0898,0,0,0,0,0,0,0.0314,0.0333,0.0343,0.0359,0.0381,0.0432,0.0482,0.0551,0.0574,0.0678,0.0698,0.0781,0.0815,0.0868,0.0859,0.0867,0.0825,0.0953,0.0951,0.0912,0.0915,0.0918,0.0899,0,0,0,0,0]},{"header":{"parameterUnit":"m.s-1","parameterCategory":2,"la1":30.2991,"la2":30.254,"lo1":-89.0895,"lo2":-89.0444,"dy":0.0017,"dx":0.0017,"nx":28,"ny":28,"refTime":"2025-02-01T03:00:00:Z","depth":"4","parameterNumber":3,"parameterNumberName":"V-component_of_CURRENTS"},"data":[0,0,0,0,0,0,0,0,0,0,0,0,0,0,0,0,0,0,0,0,0,0,0,0,0,0,0,0,0,0,0,0,0,0,0,0,0,0,0,0,0,0,0,0,0,0,0,0,0,0,0,0,0,0,0,0,0,0,0.0107,0.0107,0,0.0087,0.0087,0.0087,0.0082,0.0082,0.0082,0.0082,0.0051,0.005,0.0049,0,0,0,0,0,0,0,0,0,0,0,0,0,0.012,0.0119,0.0107,0.0107,0.0107,0.0088,0.0087,0.0087,0.0082,0.0082,0.0082,0.0082,0.0052,0.005,0.0049,0,0,0,0,0,0,0,0,0,0,0,0,0,0.0108,0.0119,0.0107,0.0102,0.0102,0.0088,0.0087,0.0087,0.0082,0.0082,0.0082,0.0083,0.0052,0.0051,0.0049,0.0035,0,0,0.0044,0.0044,0,0,0,0,0,0,0,0,0.0109,0.0107,0.0103,0.0103,0.0102,0.0088,0.008,0.0069,0.0082,0.0089,0.0082,0.0083,0.0063,0.006,0.0055,0.0033,0.0032,0.0044,0.0043,0.0043,0.0042,0,0,0,0,0,0,0,0.011,0.0108,0.0099,0.0103,0.0102,0.0094,0.0093,0.0078,0.0074,0.0088,0.0088,0.0087,0.0062,0.0057,0.0055,0.0031,0.0044,0.0043,0.0042,0.0042,-0.001,-0.001,0,0,0,0,0,0,0.0114,0.0109,0.0099,0.0098,0.0107,0.0094,0.0092,0.0092,0.0074,0.0072,0.0086,0.0086,0.0059,0.0056,0.0053,0.0038,0.0043,0.0041,0.0041,-0.0009,-0.001,-0.001,0,0,0,0,0,0,0.0114,0.0113,0.01,0.0104,0.0101,0.0094,0.0093,0.0091,0.0087,0.0073,0.0071,0.0084,0.0059,0.0055,0.0037,0.0037,0.0041,0.0039,-0.0009,-0.0009,-0.001,0.0005,0,0,0,0,0,0,0.0115,0.0113,0.0114,0.0104,0.0101,0.0094,0.0092,0.0091,0.0086,0.0086,0.007,0.0068,0.0059,0.0039,0.0035,0.0035,0.0038,-0.0008,-0.0009,-0.001,0.0005,0.0005,0.0005,0,0,0,0,0,0.0115,0.0116,0.0114,0.0113,0.0102,0.0094,0.0091,0.0086,0.0086,0.0084,0.007,0.0068,0.0031,0.0037,0.0033,0.0032,-0.0008,-0.0009,-0.001,0.0005,0.0005,0.0005,0,0,0,0,0,0,0.0121,0.0116,0.0113,0.0112,0.0104,0.0093,0.0092,0.0086,0.0074,0.0074,0.006,0.0056,0.0036,0.003,0.0038,0.0013,0.0012,0.001,0.0025,0.0025,0.0024,0.0032,0.0037,0,0,0,0,0,0.0122,0.0123,0.0114,0.0113,0.011,0.01,0.0096,0.0092,0.0081,0.0076,0.0062,0.0047,0.0027,0.0024,0.0003,-0.0006,-0.0019,-0.001,-0.001,-0.001,-0.0008,-0.003,-0.0032,-0.0014,-0.0014,-0.0014,0,0,0.0124,0.0122,0.0121,0.0114,0.0109,0.0106,0.0099,0.0094,0.0092,0.0073,0.0063,0.004,0.0021,0.0005,-0.0002,0.0004,-0.0023,-0.0011,-0.0011,-0.0009,-0.0032,-0.0033,-0.0035,-0.0014,-0.0014,-0.0014,0,0,0.0131,0.0126,0.013,0.0125,0.0118,0.0111,0.0111,0.0098,0.0093,0.0078,0.006,0.0038,0.0015,0.0001,-0.0009,-0.0022,-0.0031,-0.0027,-0.001,-0.0033,-0.0034,-0.0035,-0.0056,-0.006,-0.0016,-0.0016,-0.0016,0,0.0133,0.0138,0.0129,0.0131,0.013,0.0115,0.0119,0.0109,0.0091,0.0085,0.0077,0.003,0.0013,-0.0006,-0.0011,-0.0022,-0.0035,-0.0006,-0.0032,-0.0033,-0.0035,-0.0056,-0.006,-0.0016,-0.0016,-0.0016,-0.0016,0,0.0145,0.0147,0.0148,0.0148,0.0143,0.0143,0.0131,0.0123,0.0112,0.01,0.0072,0.004,0.0016,0.0005,-0.0006,-0.0025,-0.0032,-0.0037,-0.0028,-0.0036,-0.0058,-0.0062,-0.0015,-0.0015,-0.0015,-0.0015,0,0,0.0155,0.0158,0.0158,0.0164,0.0154,0.0154,0.0147,0.0138,0.0137,0.0108,0.0097,0.0057,0.0038,0.0024,0.0003,-0.0013,-0.0041,-0.0024,-0.0025,-0.0039,-0.0089,-0.0089,-0.0094,-0.0047,-0.0048,-0.0048,-0.01,0,0.0169,0.0182,0.0177,0.0186,0.0192,0.0178,0.0175,0.0164,0.0146,0.0129,0.0093,0.0071,0.0047,0.0035,0.0011,-0.0032,-0.0051,-0.0026,-0.0084,-0.0086,-0.008,-0.0099,-0.005,-0.0103,-0.0104,-0.0105,-0.0106,0,0.0181,0.019,0.0205,0.0212,0.0213,0.0216,0.0212,0.0207,0.0179,0.0164,0.0133,0.0101,0.0062,0.0045,-0.0027,-0.0009,-0.0046,-0.0078,-0.0081,-0.0088,-0.0094,-0.0095,-0.0114,-0.0113,-0.0112,-0.0112,-0.0111,0,0.0196,0.0208,0.0225,0.0227,0.0231,0.0237,0.0237,0.0219,0.0221,0.0187,0.0179,0.0122,0.0096,0.0038,-0.0033,-0.0028,-0.0113,-0.0114,-0.015,-0.0151,-0.014,-0.0138,-0.0161,-0.0161,-0.0161,-0.0161,-0.0161,0,0.0209,0.0221,0.0237,0.0246,0.0269,0.0261,0.0275,0.0265,0.0252,0.0254,0.0202,0.0184,0.0094,0.0034,-0.003,-0.0107,-0.0112,-0.0153,-0.0165,-0.0134,-0.013,-0.0144,-0.0141,-0.0163,-0.0162,-0.0162,-0.0162,0,0.0215,0.0226,0.0248,0.0266,0.0277,0.0291,0.0309,0.0317,0.0303,0.0301,0.0294,0.0228,0.0147,0.0054,-0.0048,-0.0097,-0.0173,-0.0198,-0.0161,-0.017,-0.0197,-0.0193,-0.0241,-0.0242,-0.0242,-0.0242,-0.0243,0,0.0218,0.0232,0.0267,0.0287,0.0298,0.0323,0.034,0.0341,0.0351,0.0329,0.0329,0.0254,0.0199,0.0054,-0.0048,-0.0176,-0.019,-0.0227,-0.021,-0.0199,-0.0206,-0.0201,-0.0197,-0.0243,-0.0243,-0.0243,-0.0244,0,0.0223,0.0239,0.0258,0.0302,0.0332,0.0364,0.039,0.0403,0.0403,0.0395,0.036,0.0279,0.0184,0.006,-0.0046,-0.0135,-0.0203,-0.0232,-0.0231,-0.0215,-0.0202,-0.0207,-0.0202,-0.0245,-0.0245,-0.0245,-0.0244,0,0.0227,0.0243,0.0275,0.0313,0.0352,0.039,0.0404,0.0418,0.0428,0.041,0.0395,0.0291,0.0227,0.0081,-0.0016,-0.0109,-0.0125,-0.0142,-0.0147,-0.0147,-0.0105,-0.0073,-0.0091,0,0,0,0,0,0.023,0.0251,0.0284,0.0326,0.0365,0.0392,0.0431,0.0442,0.0448,0.0434,0.0419,0.0332,0.0183,0.011,0.0019,-0.0028,-0.0148,-0.0138,-0.0172,-0.0253,-0.0251,-0.0219,0,0,0,0,0,0,0.0232,0.0263,0.0281,0.0331,0.0362,0.0408,0.0434,0.0442,0.0435,0.0427,0.0347,0.0315,0.0164,0.0234,0.0017,-0.0013,-0.0044,-0.0209,-0.0211,-0.0253,-0.0252,-0.0251,-0.0217,0,0,0,0,0]}]]